Cook, MN

12:48 PM CDT on October 17, 2017 (GMT -0500)
Cook Municipal

Weather History for KCQM - January, 2013

Change the Weather History Date:

Thursday, January 24, 2013

  Actual Average Record
Temperature  
Mean Temperature -16 °F -  
Max Temperature 3 °F 16 °F 33 °F (2006)
Min Temperature -36 °F -1 °F -36 °F (2013)
Degree Days  
Heating Degree Days 82    
Moisture  
Dew Point -24 °F    
Average Humidity 69    
Maximum Humidity 85    
Minimum Humidity 50    
Precipitation  
Precipitation 0.02 in - - ()
Sea Level Pressure  
Sea Level Pressure 30.41 in    
Wind  
Wind Speed 2 mph (SE)    
Max Wind Speed 9 mph    
Max Gust Speed 16 mph    
Visibility 7 miles    
Events Snow    
Averages and records for this station are not official NWS values.
T = Trace of Precipitation, MM = Missing Value Source: NWS Daily Summary

Daily Weather History Graph

Daily Weather History Graph

Search for Another Location

Airport or City:

Trip Planner

Search our weather history database for the weather conditions in past years. The results will help you decide how hot, cold, wet, or windy it might be!

Date:

Astronomy

Jan. 24, 2013 Rise Set
Actual Time 7:47 AM CST 4:59 PM CST
Civil Twilight 7:13 AM CST 5:33 PM CST
Nautical Twilight 6:35 AM CST 6:11 PM CST
Astronomical Twilight 5:58 AM CST 6:47 PM CST
Moon 2:59 PM CST (1/24) 5:47 AM CST (1/24)
Length of Visible Light 10h 20m
Length of Day
9h 12m
Waxing Gibbous, 94% of the Moon is Illuminated
Jan 24
Waxing Gibbous
Jan 26
Full
Feb 3
Last Quarter
Feb 10
New
Feb 17
First Quarter

Hourly Weather History & Observations

Time (CST) Temp. Windchill Dew Point Humidity Pressure Visibility Wind Dir Wind Speed Gust Speed Precip Events Conditions
12:16 AM -29.2 °F - -34.6 °F 75% 30.56 in - Calm Calm - N/A   Clear
12:36 AM -29.2 °F - -36.4 °F 68% 30.56 in - Calm Calm - N/A   Clear
12:57 AM -29.2 °F - -36.4 °F 68% 30.55 in - Calm Calm - N/A   Clear
1:16 AM -29.2 °F - -36.4 °F 68% 30.55 in - Calm Calm - N/A   Clear
1:37 AM -31.0 °F - -38.2 °F 68% 30.56 in - Calm Calm - N/A   Clear
1:57 AM -32.8 °F - -38.2 °F 75% 30.57 in - Calm Calm - N/A   Clear
2:16 AM -32.8 °F - -38.2 °F 75% 30.56 in - Calm Calm - N/A   Clear
2:37 AM -32.8 °F - -40.0 °F 68% 30.57 in - Calm Calm - N/A   Clear
2:56 AM -32.8 °F - -40.0 °F 68% 30.56 in - Calm Calm - N/A   Clear
3:16 AM -34.6 °F - -41.8 °F 68% 30.56 in - Calm Calm - N/A   Clear
3:37 AM -34.6 °F - -41.8 °F 68% 30.57 in - Calm Calm - N/A   Clear
3:57 AM -32.8 °F - -40.0 °F 68% 30.57 in - Calm Calm - N/A   Clear
4:16 AM -34.6 °F - -41.8 °F 68% 30.57 in - Calm Calm - N/A   Clear
4:37 AM -34.6 °F - -41.8 °F 68% 30.57 in - Calm Calm - N/A   Clear
4:57 AM -34.6 °F - -41.8 °F 68% 30.56 in - Calm Calm - N/A   Clear
5:16 AM -34.6 °F - -41.8 °F 68% 30.56 in - Calm Calm - N/A   Clear
5:37 AM -34.6 °F - -41.8 °F 68% 30.57 in - Calm Calm - N/A   Clear
5:56 AM -36.4 °F - -43.6 °F 67% 30.57 in - Calm Calm - N/A   Clear
6:17 AM -36.4 °F - -43.6 °F 67% 30.57 in - Calm Calm - N/A   Clear
6:37 AM -36.4 °F - -43.6 °F 67% 30.57 in - Calm Calm - N/A   Clear
6:56 AM -36.4 °F - -43.6 °F 67% 30.58 in - Calm Calm - N/A   Clear
7:17 AM -36.4 °F - -43.6 °F 67% 30.58 in - Calm Calm - N/A   Clear
7:36 AM -34.6 °F - -41.8 °F 68% 30.58 in - Calm Calm - N/A   Clear
7:56 AM -34.6 °F - -43.6 °F 61% 30.56 in - Calm Calm - N/A   Clear
8:17 AM -34.6 °F - -41.8 °F 68% 30.55 in - Calm Calm - N/A   Clear
8:36 AM -32.8 °F - -38.2 °F 75% 30.55 in - Calm Calm - N/A   Clear
8:56 AM -29.2 °F - -36.4 °F 68% 30.55 in - Calm Calm - N/A   Clear
9:17 AM -27.4 °F - -32.8 °F 75% 30.55 in - Calm Calm - N/A   Clear
9:36 AM -23.8 °F - -29.2 °F 76% 30.54 in - Calm Calm - N/A   Clear
9:57 AM -20.2 °F - -25.6 °F 76% 30.53 in - Calm Calm - N/A   Clear
10:17 AM -18.4 °F - -25.6 °F 70% 30.53 in 10.0 mi Calm Calm - N/A   Clear
10:36 AM -16.6 °F - -23.8 °F 70% 30.52 in 10.0 mi Calm Calm - N/A   Clear
10:57 AM -14.8 °F - -22.0 °F 70% 30.53 in 10.0 mi Calm Calm - N/A   Clear
11:17 AM -14.8 °F - -20.2 °F 77% 30.52 in 10.0 mi Calm Calm - N/A   Clear
11:36 AM -11.2 °F -23.0 °F -20.2 °F 64% 30.51 in 10.0 mi SSE 4.6 mph - N/A   Clear
11:57 AM -11.2 °F -23.0 °F -20.2 °F 64% 30.50 in 10.0 mi SSE 4.6 mph - N/A   Clear
12:16 PM -9.4 °F -20.9 °F -20.2 °F 59% 30.48 in 10.0 mi SE 4.6 mph - N/A   Clear
12:35 PM -7.6 °F -20.6 °F -20.2 °F 54% 30.47 in 10.0 mi SE 5.8 mph - N/A   Clear
12:57 PM -7.6 °F -16.5 °F -20.2 °F 54% 30.45 in 10.0 mi SSE 3.5 mph - N/A   Clear
1:16 PM -5.8 °F -16.7 °F -20.2 °F 50% 30.44 in 10.0 mi SSE 4.6 mph - N/A   Clear
1:37 PM -5.8 °F -18.4 °F -20.2 °F 50% 30.43 in 10.0 mi South 5.8 mph - N/A   Scattered Clouds
1:57 PM -5.8 °F -19.9 °F -20.2 °F 50% 30.42 in 10.0 mi South 6.9 mph - N/A   Scattered Clouds
2:16 PM -5.8 °F -21.2 °F -18.4 °F 55% 30.42 in 10.0 mi SE 8.1 mph - N/A   Clear
2:37 PM -5.8 °F -21.2 °F -18.4 °F 55% 30.40 in 10.0 mi SE 8.1 mph - N/A   Clear
2:57 PM -5.8 °F -16.7 °F -18.4 °F 55% 30.38 in 10.0 mi SSE 4.6 mph - N/A   Clear
3:16 PM -5.8 °F -19.9 °F -18.4 °F 55% 30.38 in 10.0 mi SSE 6.9 mph - N/A   Clear
3:37 PM -5.8 °F -18.4 °F -16.6 °F 60% 30.35 in 10.0 mi SSE 5.8 mph - N/A   Scattered Clouds
3:56 PM -4.0 °F -12.4 °F -16.6 °F 55% 30.33 in 10.0 mi SE 3.5 mph - N/A   Mostly Cloudy
4:17 PM -4.0 °F -14.6 °F -14.8 °F 60% 30.33 in 10.0 mi SSE 4.6 mph - N/A   Mostly Cloudy
4:37 PM -2.2 °F -10.4 °F -14.8 °F 55% 30.31 in 10.0 mi SE 3.5 mph - N/A   Overcast
4:56 PM -2.2 °F -12.5 °F -14.8 °F 55% 30.30 in 10.0 mi SE 4.6 mph - N/A   Overcast
5:17 PM -2.2 °F -12.5 °F -13.0 °F 60% 30.30 in 10.0 mi SE 4.6 mph - N/A   Overcast
5:37 PM -2.2 °F -10.4 °F -13.0 °F 60% 30.29 in 7.0 mi SE 3.5 mph - N/A   Overcast
5:56 PM -2.2 °F -10.4 °F -9.4 °F 71% 30.28 in 2.5 mi ESE 3.5 mph - N/A Snow Light Snow
6:17 PM -2.2 °F -10.4 °F -7.6 °F 78% 30.27 in 2.0 mi SE 3.5 mph - N/A Snow Light Snow
6:36 PM -2.2 °F -12.5 °F -7.6 °F 78% 30.26 in 2.5 mi SE 4.6 mph - N/A Snow Light Snow
6:57 PM -2.2 °F -12.5 °F -5.8 °F 85% 30.25 in 1.5 mi SE 4.6 mph - N/A Snow Light Snow
7:17 PM -2.2 °F -14.2 °F -5.8 °F 85% 30.23 in 1.8 mi SE 5.8 mph - 0.01 in Snow Light Snow
7:36 PM -0.4 °F -14.7 °F -5.8 °F 78% 30.20 in 2.0 mi SE 8.1 mph - 0.01 in Snow Light Snow
7:57 PM -0.4 °F -12.0 °F -5.8 °F 78% 30.19 in 2.0 mi SE 5.8 mph - N/A Snow Light Snow
8:17 PM -0.4 °F -13.4 °F -5.8 °F 78% 30.18 in 2.0 mi SE 6.9 mph - N/A Snow Light Snow
8:36 PM -0.4 °F -12.0 °F -5.8 °F 78% 30.16 in 1.5 mi SE 5.8 mph - N/A Snow Light Snow
8:57 PM -0.4 °F -15.7 °F -5.8 °F 78% 30.17 in 3.0 mi SE 9.2 mph - N/A Snow Light Snow
9:17 PM -0.4 °F -13.4 °F -5.8 °F 78% 30.15 in 7.0 mi SE 6.9 mph - N/A Snow Light Snow
9:36 PM 1.4 °F -11.3 °F -4.0 °F 78% 30.14 in 5.0 mi SE 6.9 mph - N/A Snow Light Snow
9:57 PM 1.4 °F -9.9 °F -4.0 °F 78% 30.10 in 2.0 mi SE 5.8 mph - N/A Snow Light Snow
10:17 PM 1.4 °F -11.3 °F -2.2 °F 85% 30.10 in 5.0 mi SE 6.9 mph - 0.01 in Snow Light Snow
10:36 PM 1.4 °F -12.5 °F -2.2 °F 85% 30.09 in 5.0 mi SE 8.1 mph - 0.01 in Snow Light Snow
10:57 PM 1.4 °F -12.5 °F -2.2 °F 85% 30.08 in 10.0 mi SSE 8.1 mph - N/A Snow Light Snow
11:16 PM 3.2 °F -7.8 °F -2.2 °F 78% 30.08 in 10.0 mi SSE 5.8 mph - N/A Snow Light Snow
11:37 PM 3.2 °F -9.1 °F -2.2 °F 78% 30.07 in 10.0 mi South 6.9 mph - N/A Snow Light Snow
11:56 PM 3.2 °F -11.3 °F -2.2 °F 78% 30.06 in 10.0 mi SSE 9.2 mph 16.1 mph N/A   Overcast